LRBO Weather Reports


Display with metric or nautical units.
time (UTC)temp
F
wind
direction
speed
MPH
gust
MPH
rain 1hr
in
rain 24hr
in
rain mn
in
humidity
%
barometer
mb
20260510070355 59 280 7.0 0.0 0.00 0.00 0.00 100 1016.0
20260510064849 55 280 3.0 0.0 0.00 0.00 0.00 88 1015.0
20260510063353 55 280 3.0 0.0 0.00 0.00 0.00 88 1015.0
20260510061850 55 280 3.0 0.0 0.00 0.00 0.00 88 1015.0
20260510060353 55 280 3.0 0.0 0.00 0.00 0.00 88 1015.0
20260510054850 52 40 7.0 0.0 0.00 0.00 0.00 94 1015.0
20260510053401 52 40 7.0 0.0 0.00 0.00 0.00 94 1015.0
20260510051853 52 40 7.0 0.0 0.00 0.00 0.00 94 1015.0
20260510050353 52 40 7.0 0.0 0.00 0.00 0.00 94 1015.0
20260510044851 52 3.0 0.0 0.00 0.00 0.00 94 1015.0
20260510043353 52 3.0 0.0 0.00 0.00 0.00 94 1015.0
20260510041853 52 3.0 0.0 0.00 0.00 0.00 94 1015.0
20260510040353 52 3.0 0.0 0.00 0.00 0.00 94 1015.0
20260510034847 52 3.0 0.0 0.00 0.00 0.00 94 1015.0
20260510033359 52 3.0 0.0 0.00 0.00 0.00 94 1015.0
20260510031851 52 3.0 0.0 0.00 0.00 0.00 94 1015.0
20260510030354 52 3.0 0.0 0.00 0.00 0.00 94 1015.0
20260510024848 52 3.0 0.0 0.00 0.00 0.00 94 1017.0
20260510023354 52 3.0 0.0 0.00 0.00 0.00 94 1017.0
20260510021847 52 3.0 0.0 0.00 0.00 0.00 94 1017.0
20260510020353 52 3.0 0.0 0.00 0.00 0.00 94 1017.0
20260510014851 52 3.0 0.0 0.00 0.00 0.00 94 1017.0
20260510013353 0 0.0 0.0 0.00 0.00 0.00
20260510011850 0 0.0 0.0 0.00 0.00 0.00
20260510010354 0 0.0 0.0 0.00 0.00 0.00
20260510004850 54 3.0 0.0 0.00 0.00 0.00 88 1017.0
20260510003353 54 3.0 0.0 0.00 0.00 0.00 88 1017.0
20260510001850 54 3.0 0.0 0.00 0.00 0.00 88 1017.0
20260510000353 54 3.0 0.0 0.00 0.00 0.00 88 1017.0
20260509234851 0 0.0 0.0 0.00 0.00 0.00
20260509233408 0 0.0 0.0 0.00 0.00 0.00
20260509231850 0 0.0 0.0 0.00 0.00 0.00
20260509230353 0 0.0 0.0 0.00 0.00 0.00
20260509224848 55 3.0 0.0 0.00 0.00 0.00 100 1016.0
20260509223353 55 3.0 0.0 0.00 0.00 0.00 100 1016.0
20260509221844 55 3.0 0.0 0.00 0.00 0.00 100 1016.0
20260509220350 0 0.0 0.0 0.00 0.00 0.00
20260509214848 55 3.0 0.0 0.00 0.00 0.00 100 1016.0
20260509213353 55 3.0 0.0 0.00 0.00 0.00 100 1016.0
20260509211848 0 0.0 0.0 0.00 0.00 0.00
20260509210353 0 0.0 0.0 0.00 0.00 0.00
20260509204900 57 3.0 0.0 0.00 0.00 0.00 100 1016.0
20260509203354 57 3.0 0.0 0.00 0.00 0.00 100 1016.0
20260509201851 57 3.0 0.0 0.00 0.00 0.00 100 1016.0
20260509200353 0 0.0 0.0 0.00 0.00 0.00
20260509194851 57 10 5.0 0.0 0.00 0.00 0.00 94 1016.0
20260509193353 57 10 5.0 0.0 0.00 0.00 0.00 94 1016.0
20260509191850 57 10 5.0 0.0 0.00 0.00 0.00 94 1016.0
20260509190353 57 10 5.0 0.0 0.00 0.00 0.00 94 1016.0
20260509184853 59 20 5.0 0.0 0.00 0.00 0.00 94 1015.0
20260509183354 59 20 5.0 0.0 0.00 0.00 0.00 94 1015.0
20260509181854 59 20 5.0 0.0 0.00 0.00 0.00 94 1015.0
20260509180354 59 20 5.0 0.0 0.00 0.00 0.00 94 1015.0
20260509174854 59 60 7.0 0.0 0.00 0.00 0.00 100 1015.0
20260509173355 59 60 7.0 0.0 0.00 0.00 0.00 100 1015.0
20260509171851 59 60 7.0 0.0 0.00 0.00 0.00 100 1015.0
20260509170354 59 60 7.0 0.0 0.00 0.00 0.00 100 1015.0
20260509164847 59 110 9.0 0.0 0.00 0.00 0.00 100 1015.0
20260509163354 59 110 9.0 0.0 0.00 0.00 0.00 100 1015.0
20260509161850 59 110 9.0 0.0 0.00 0.00 0.00 100 1015.0
20260509160353 59 110 9.0 0.0 0.00 0.00 0.00 100 1015.0
20260509154854 61 60 11.0 0.0 0.00 0.00 0.00 83 1015.0
20260509153353 61 60 11.0 0.0 0.00 0.00 0.00 83 1015.0
20260509151854 61 60 11.0 0.0 0.00 0.00 0.00 83 1015.0
20260509150354 61 60 11.0 0.0 0.00 0.00 0.00 83 1015.0
20260509144854 61 40 14.0 0.0 0.00 0.00 0.00 77 1015.0
20260509143353 61 40 14.0 0.0 0.00 0.00 0.00 77 1015.0
20260509141850 61 40 14.0 0.0 0.00 0.00 0.00 77 1015.0
20260509140354 61 40 14.0 0.0 0.00 0.00 0.00 77 1015.0
20260509134854 61 30 11.0 0.0 0.00 0.00 0.00 83 1015.0
20260509133354 61 30 11.0 0.0 0.00 0.00 0.00 83 1015.0
20260509131851 61 30 11.0 0.0 0.00 0.00 0.00 83 1015.0
20260509130353 0 0.0 0.0 0.00 0.00 0.00
20260509124854 61 40 11.0 0.0 0.00 0.00 0.00 83 1015.0
20260509123354 61 40 11.0 0.0 0.00 0.00 0.00 83 1015.0
20260509121844 61 40 11.0 0.0 0.00 0.00 0.00 83 1015.0
20260509120353 61 40 11.0 0.0 0.00 0.00 0.00 83 1015.0
20260509114850 61 50 14.0 0.0 0.00 0.00 0.00 83 1016.0
20260509113353 61 50 14.0 0.0 0.00 0.00 0.00 83 1016.0
20260509111854 61 50 14.0 0.0 0.00 0.00 0.00 83 1016.0
20260509110353 0 0.0 0.0 0.00 0.00 0.00
20260509104850 61 50 14.0 0.0 0.00 0.00 0.00 83 1016.0
20260509103354 61 50 14.0 0.0 0.00 0.00 0.00 83 1016.0
20260509101851 61 50 14.0 0.0 0.00 0.00 0.00 83 1016.0
20260509100354 61 50 14.0 0.0 0.00 0.00 0.00 83 1016.0
20260509094850 61 40 14.0 0.0 0.00 0.00 0.00 77 1016.0
20260509093353 61 40 14.0 0.0 0.00 0.00 0.00 77 1016.0
20260509092026 0 0.0 0.0 0.00 0.00 0.00
20260509090354 61 40 14.0 0.0 0.00 0.00 0.00 77 1016.0
20260509084847 57 60 14.0 0.0 0.00 0.00 0.00 88 1016.0
20260509083353 57 60 14.0 0.0 0.00 0.00 0.00 88 1016.0
20260509081922 57 60 14.0 0.0 0.00 0.00 0.00 88 1016.0
20260509080354 57 60 14.0 0.0 0.00 0.00 0.00 88 1016.0
20260509074854 55 50 14.0 0.0 0.00 0.00 0.00 100 1016.0
20260509073354 55 50 14.0 0.0 0.00 0.00 0.00 100 1016.0
20260509071853 55 50 14.0 0.0 0.00 0.00 0.00 100 1016.0